• In Österreich
  • Länderverzeichnis
  • Für 7 Tage
  • Wassertemperatur
  • Satellitenkarten
  • Wetterkarte
  • News
  • Widgets
  • user-avatar
    Anmelden

    Stündliche Wetter Igls

    Heute, 25 Februar, Sonntag

    Zeit Temperatur Niederschläge Wind Luftdruck Luftfeuchtigkeit
    00:00 -7°C° 0 mm 1 m/S 681 mmHg 90%
    01:00 -9°C° 0 mm 2 m/S 681 mmHg 88%
    02:00 -9°C° 0 mm 2 m/S 681 mmHg 88%
    03:00 -10°C° 0 mm 2 m/S 681 mmHg 88%
    04:00 -10°C° 0 mm 1 m/S 680 mmHg 88%
    05:00 -10°C° 0 mm 1 m/S 680 mmHg 88%
    06:00 -11°C° 0 mm 1 m/S 681 mmHg 88%
    07:00 -13°C° 0 mm 2 m/S 681 mmHg 95%
    08:00 -12°C° 0 mm 2 m/S 681 mmHg 92%
    09:00 -10°C° 0 mm 2 m/S 681 mmHg 88%
    10:00 -8°C° 0 mm 2 m/S 681 mmHg 85%
    11:00 -7°C° 0 mm 2 m/S 681 mmHg 82%
    12:00 -7°C° 0 mm 2 m/S 681 mmHg 80%
    13:00 -6°C° 0 mm 2 m/S 681 mmHg 77%
    14:00 -8°C° 0 mm 3 m/S 681 mmHg 79%
    15:00 -8°C° 0 mm 3 m/S 681 mmHg 82%
    16:00 -9°C° 0 mm 3 m/S 681 mmHg 84%
    17:00 -10°C° 0,1 mm 2 m/S 681 mmHg 87%
    18:00 -13°C° 0,1 mm 2 m/S 681 mmHg 91%
    19:00 -14°C° 0,1 mm 2 m/S 681 mmHg 94%
    20:00 -14°C° 0 mm 1 m/S 681 mmHg 94%
    21:00 -15°C° 0 mm 1 m/S 681 mmHg 94%
    22:00 -16°C° 0 mm 1 m/S 681 mmHg 93%
    23:00 -16°C° 0 mm 1 m/S 680 mmHg 93%

    Morgen, 26 Februar, Montag

    Zeit Temperatur Niederschläge Wind Luftdruck Luftfeuchtigkeit
    00:00 -17°C° 0 mm 1 m/S 680 mmHg 92%
    01:00 -17°C° 0 mm 1 m/S 680 mmHg 91%
    02:00 -18°C° 0 mm 1 m/S 680 mmHg 90%
    03:00 -18°C° 0 mm 1 m/S 680 mmHg 90%
    04:00 -18°C° 0 mm 1 m/S 680 mmHg 90%
    05:00 -19°C° 0 mm 1 m/S 680 mmHg 90%
    06:00 -19°C° 0 mm 1 m/S 680 mmHg 90%
    07:00 -19°C° 0 mm 1 m/S 680 mmHg 90%
    08:00 -19°C° 0 mm 2 m/S 680 mmHg 88%
    09:00 -17°C° 0 mm 2 m/S 680 mmHg 85%
    10:00 -15°C° 0 mm 2 m/S 680 mmHg 83%
    11:00 -14°C° 0 mm 2 m/S 680 mmHg 81%
    12:00 -14°C° 0 mm 3 m/S 679 mmHg 80%
    13:00 -14°C° 0 mm 3 m/S 679 mmHg 79%
    14:00 -14°C° 0,1 mm 3 m/S 679 mmHg 81%
    15:00 -14°C° 0,1 mm 3 m/S 679 mmHg 82%
    16:00 -14°C° 0,1 mm 3 m/S 678 mmHg 84%
    17:00 -14°C° 0,1 mm 2 m/S 678 mmHg 87%
    18:00 -16°C° 0,1 mm 2 m/S 679 mmHg 90%
    19:00 -17°C° 0,1 mm 2 m/S 679 mmHg 94%
    20:00 -16°C° 0,1 mm 1 m/S 679 mmHg 94%
    21:00 -16°C° 0,1 mm 1 m/S 678 mmHg 94%
    22:00 -17°C° 0,1 mm 1 m/S 678 mmHg 94%
    23:00 -17°C° 0,1 mm 1 m/S 678 mmHg 94%

    übermorgen, 27 Februar, Dienstag

    Zeit Temperatur Niederschläge Wind Luftdruck Luftfeuchtigkeit
    00:00 -17°C° 0,1 mm 1 m/S 678 mmHg 93%
    01:00 -18°C° 0,1 mm 1 m/S 678 mmHg 93%
    02:00 -18°C° 0,1 mm 1 m/S 678 mmHg 93%
    03:00 -18°C° 0,1 mm 1 m/S 677 mmHg 92%
    04:00 -18°C° 0,1 mm 1 m/S 677 mmHg 92%
    05:00 -18°C° 0,1 mm 1 m/S 677 mmHg 92%
    06:00 -19°C° 0,1 mm 1 m/S 677 mmHg 92%
    07:00 -19°C° 0,1 mm 1 m/S 677 mmHg 92%
    08:00 -17°C° 0 mm 1 m/S 677 mmHg 89%
    09:00 -14°C° 0 mm 1 m/S 677 mmHg 86%
    10:00 -12°C° 0 mm 1 m/S 678 mmHg 84%
    11:00 -13°C° 0,1 mm 2 m/S 678 mmHg 82%
    12:00 -13°C° 0,1 mm 2 m/S 677 mmHg 80%
    13:00 -12°C° 0,1 mm 2 m/S 677 mmHg 78%
    14:00 -12°C° 0,1 mm 2 m/S 677 mmHg 79%
    15:00 -12°C° 0,1 mm 2 m/S 677 mmHg 81%
    16:00 -12°C° 0,1 mm 2 m/S 677 mmHg 82%
    17:00 -13°C° 0,1 mm 2 m/S 677 mmHg 86%
    18:00 -13°C° 0,1 mm 1 m/S 677 mmHg 90%
    19:00 -14°C° 0,1 mm 1 m/S 678 mmHg 94%
    20:00 -15°C° 0 mm 1 m/S 678 mmHg 94%
    21:00 -16°C° 0 mm 1 m/S 678 mmHg 94%
    22:00 -17°C° 0 mm 1 m/S 678 mmHg 93%
    23:00 -17°C° 0 mm 1 m/S 678 mmHg 92%

    28 Februar, Mittwoch

    Zeit Temperatur Niederschläge Wind Luftdruck Luftfeuchtigkeit
    00:00 -18°C° 0 mm 1 m/S 678 mmHg 90%
    01:00 -18°C° 0 mm 1 m/S 678 mmHg 88%
    02:00 -18°C° 0 mm 1 m/S 678 mmHg 87%
    03:00 -18°C° 0 mm 1 m/S 678 mmHg 86%
    04:00 -18°C° 0 mm 1 m/S 679 mmHg 85%
    05:00 -18°C° 0 mm 1 m/S 679 mmHg 85%
    06:00 -18°C° 0 mm 1 m/S 679 mmHg 84%
    07:00 -18°C° 0 mm 1 m/S 679 mmHg 83%
    08:00 -15°C° 0 mm 1 m/S 679 mmHg 77%
    09:00 -12°C° 0 mm 1 m/S 680 mmHg 71%
    10:00 -9°C° 0 mm 1 m/S 680 mmHg 66%
    11:00 -7°C° 0 mm 1 m/S 680 mmHg 65%
    12:00 -7°C° 0 mm 2 m/S 680 mmHg 64%
    13:00 -5°C° 0 mm 2 m/S 680 mmHg 63%
    14:00 -5°C° 0 mm 2 m/S 680 mmHg 66%
    15:00 -5°C° 0 mm 2 m/S 680 mmHg 68%
    16:00 -5°C° 0 mm 2 m/S 680 mmHg 71%
    17:00 -7°C° 0 mm 2 m/S 680 mmHg 77%
    18:00 -9°C° 0 mm 2 m/S 680 mmHg 83%
    19:00 -12°C° 0 mm 2 m/S 680 mmHg 89%
    20:00 -12°C° 0 mm 2 m/S 680 mmHg 88%
    21:00 -13°C° 0 mm 2 m/S 680 mmHg 87%
    22:00 -13°C° 0 mm 2 m/S 680 mmHg 86%
    23:00 -13°C° 0 mm 2 m/S 680 mmHg 84%

    1 März, Donnerstag

    Zeit Temperatur Niederschläge Wind Luftdruck Luftfeuchtigkeit
    00:00 -14°C° 0 mm 3 m/S 680 mmHg 82%
    01:00 -13°C° 0 mm 3 m/S 680 mmHg 80%
    02:00 -13°C° 0 mm 3 m/S 680 mmHg 80%
    03:00 -13°C° 0 mm 3 m/S 679 mmHg 80%
    04:00 -12°C° 0 mm 3 m/S 679 mmHg 80%
    05:00 -12°C° 0 mm 3 m/S 678 mmHg 80%
    06:00 -12°C° 0 mm 3 m/S 678 mmHg 80%
    07:00 -12°C° 0 mm 3 m/S 678 mmHg 80%
    08:00 -8°C° 0 mm 3 m/S 678 mmHg 79%
    09:00 -6°C° 0 mm 3 m/S 678 mmHg 78%
    10:00 -2°C° 0 mm 3 m/S 678 mmHg 77%
    11:00 -1°C° 0 mm 3 m/S 677 mmHg 79%
    12:00 0°C° 0 mm 3 m/S 677 mmHg 81%
    13:00 +1°C° 0 mm 3 m/S 676 mmHg 82%
    14:00 +1°C° 0,1 mm 3 m/S 676 mmHg 84%
    15:00 +1°C° 0,1 mm 3 m/S 675 mmHg 86%
    16:00 +1°C° 0,1 mm 3 m/S 675 mmHg 87%
    17:00 0°C° 0,1 mm 3 m/S 675 mmHg 89%
    18:00 -1°C° 0,1 mm 2 m/S 675 mmHg 90%
    19:00 -2°C° 0,1 mm 2 m/S 675 mmHg 91%
    20:00 -2°C° 0,1 mm 2 m/S 675 mmHg 91%
    21:00 -2°C° 0,1 mm 3 m/S 675 mmHg 90%
    22:00 -2°C° 0,1 mm 3 m/S 675 mmHg 90%
    23:00 -2°C° 0,1 mm 2 m/S 675 mmHg 89%

    2 März, Freitag

    Zeit Temperatur Niederschläge Wind Luftdruck Luftfeuchtigkeit
    00:00 -2°C° 0,1 mm 2 m/S 675 mmHg 89%
    01:00 -2°C° 0,1 mm 2 m/S 674 mmHg 89%
    02:00 -2°C° 0 mm 2 m/S 674 mmHg 88%
    03:00 -3°C° 0 mm 2 m/S 674 mmHg 88%
    04:00 -3°C° 0 mm 2 m/S 673 mmHg 87%
    05:00 -3°C° 0 mm 2 m/S 673 mmHg 87%
    06:00 -3°C° 0 mm 2 m/S 673 mmHg 86%
    07:00 -2°C° 0 mm 2 m/S 673 mmHg 85%
    08:00 +1°C° 0 mm 2 m/S 673 mmHg 85%
    09:00 +3°C° 0 mm 2 m/S 673 mmHg 85%
    10:00 +6°C° 0 mm 1 m/S 674 mmHg 85%
    11:00 +7°C° 0 mm 1 m/S 673 mmHg 87%
    12:00 +8°C° 0 mm 1 m/S 673 mmHg 88%
    13:00 +9°C° 0 mm 1 m/S 673 mmHg 90%
    14:00 +8°C° 0 mm 1 m/S 672 mmHg 91%
    15:00 +8°C° 0 mm 1 m/S 672 mmHg 91%
    16:00 +7°C° 0 mm 2 m/S 672 mmHg 92%
    17:00 +6°C° 0 mm 2 m/S 672 mmHg 92%
    18:00 +4°C° 0 mm 2 m/S 672 mmHg 92%
    19:00 +3°C° 0 mm 2 m/S 672 mmHg 92%
    20:00 +3°C° 0 mm 2 m/S 672 mmHg 91%
    21:00 +3°C° 0 mm 2 m/S 672 mmHg 90%
    22:00 +2°C° 0 mm 2 m/S 672 mmHg 89%
    23:00 +2°C° 0,1 mm 2 m/S 672 mmHg 89%
    Mehr zeigen